Location: *
(37.4917°N, 71.5558°E)
Time: 01:53:38
(UTC+00:00)

Cosmos 494 Rocket - Pass Details

Date: 09 April 2020
Orbit: 742 x 771 km, 74.1° (Epoch: 05 June)

Event Time Altitude Azimuth Distance (km) Brightness Sun altitude
Rises 23:00:33 0° 334° (NNW) 3,248 7.3 -20.5°
Reaches altitude 10° 23:03:01 10° 328° (NNW) 2,319 6.4 -20.1°
Maximum altitude 23:08:00 44° 258° (WSW) 1,056 4.2 -19.2°
Enters shadow 23:10:44 24° 200° (SSW) 1,549 5.2 -18.7°
